Wind_Speed
27 30 29 30 32 32 31 26 21 19 15 7 2 4 5 5 4 5 6 8 10 10 12 17 24 30 36 36 37 29 33 30 29 35 35 37 32 33 33 36 34 33 32 36
25 24 26 26 26 27 28 27 24 19 15 13 10 7 4 2 3 6 10 11 12 13 13 14 14 17 21 24 27 29 31 29 31 29 29 27 29 31 31 30 29 32 35 36
22 23 23 23 23 23 22 22 23 21 18 15 13 10 9 8 8 7 6 5 5 8 9 10 8 9 11 13 13 15 16 17 17 19 20 21 23 25 27 28 29 30 32 34
20 20 20 21 20 20 19 18 18 17 17 16 15 11 10 8 8 7 7 7 7 8 8 8 8 10 11 11 12 13 15 16 17 18 19 20 20 22 24 25 28 29 30 31
21 19 18 18 18 18 18 17 16 16 13 12 13 12 11 9 7 7 6 6 6 7 9 11 12 13 13 15 15 16 16 17 17 18 19 20 21 21 22 23 26 28 32 36
20 21 19 17 17 17 18 18 17 15 15 14 12 12 10 10 8 6 4 4 5 6 8 9 10 11 13 14 14 15 16 17 17 16 17 18 21 24 27 30 33 36 39 42
21 21 21 17 18 18 18 18 19 18 17 16 16 15 14 13 12 11 10 9 9 8 8 9 10 11 12 13 13 14 16 18 20 21 23 26 28 30 33 36 39 42 45 48
24 23 23 22 21 21 21 19 20 23 22 20 19 17 17 17 17 17 18 16 15 15 15 16 17 18 18 19 20 22 24 26 27 29 31 33 35 37 39 41 43 46 48 50
29 26 26 25 24 25 24 23 23 25 26 25 24 22 20 19 20 22 22 22 22 21 22 23 23 25 26 27 29 30 31 32 33 34 36 37 38 41 43 45 47 48 48 49
31 32 28 29 27 26 28 27 28 30 32 30 27 25 22 22 25 25 26 27 27 28 29 30 31 32 32 33 34 35 36 37 38 39 40 41 43 45 47 49 50 50 51 52
34 36 32 31 29 29 29 28 30 33 34 36 36 29 25 24 27 28 30 31 32 32 34 35 36 36 37 38 39 40 41 42 42 43 44 45 45 47 49 51 53 54 55 58
39 42 39 37 34 32 32 32 34 38 37 38 39 32 29 26 31 29 30 32 34 35 36 36 37 39 40 41 40 42 44 46 46 46 46 47 48 50 51 53 56 57 60 61
45 47 44 42 39 35 39 37 38 40 41 41 43 35 30 31 34 32 33 35 35 35 36 38 39 39 40 40 41 42 44 46 47 47 47 48 50 52 53 56 57 60 62 65
51 53 50 48 45 44 45 41 43 45 48 41 45 38 32 32 40 38 36 39 36 34 32 38 41 41 41 42 43 44 45 45 45 46 48 51 52 53 55 56 59 61 64 68
56 55 54 52 52 49 50 48 49 53 45 50 40 44 32 31 45 43 41 39 38 38 34 38 43 44 43 43 45 46 45 45 46 47 49 52 55 57 58 60 62 62 66 69
59 58 56 55 57 56 59 55 57 52 53 51 44 44 34 38 47 49 44 43 44 39 36 40 41 41 40 43 45 44 45 48 49 49 52 55 57 59 60 63 62 65 68 71
64 63 61 58 58 61 69 56 54 54 57 49 49 41 42 41 45 50 51 47 48 40 39 40 40 39 39 42 46 48 49 50 51 53 55 58 60 61 64 63 63 66 69 72
71 70 68 64 62 70 63 58 57 57 56 54 48 45 47 46 48 53 52 46 48 41 43 42 40 39 41 43 46 51 52 53 56 56 57 60 61 63 63 63 65 67 71 74
75 73 74 73 73 72 76 57 57 59 58 61 54 46 42 48 54 55 49 48 49 46 45 42 42 43 44 46 49 52 53 56 58 59 60 61 63 62 62 63 66 68 72 75
80 78 80 82 84 81 81 54 60 66 69 55 51 46 48 53 53 45 49 54 51 47 46 46 45 44 45 50 54 54 55 57 59 63 62 63 62 61 62 64 66 70 73 74
87 88 87 86 90 87 77 61 63 71 61 54 54 54 55 55 53 51 54 51 50 52 49 48 47 47 49 52 55 55 57 59 62 62 63 62 61 61 63 64 67 69 71 76
94 92 92 90 92 97 83 70 70 58 61 60 65 63 63 58 54 50 51 51 51 53 53 50 50 51 51 54 56 57 60 61 61 62 61 60 60 61 61 63 66 68 74 79
99 97 94 98 99 90 84 74 68 67 67 64 64 64 63 61 59 57 57 55 53 57 54 51 51 55 56 56 59 59 60 60 61 61 59 57 58 59 60 62 66 70 76 80
98 92 97 98 101 95 87 79 72 72 71 70 69 68 69 65 63 61 64 61 59 56 56 56 56 57 59 60 60 60 61 61 60 59 57 56 56 57 59 64 68 75 79 84
101 95 102 102 102 92 87 81 79 79 77 75 72 69 67 64 61 62 65 68 62 58 59 59 61 61 61 62 60 61 61 59 58 57 55 53 54 56 60 66 71 76 81 86
101 98 99 104 95 90 88 78 79 79 76 76 71 65 61 60 59 60 61 63 60 60 61 62 62 61 63 62 60 59 57 57 56 53 51 51 54 58 64 68 74 79 82 87
Wind_Direction
12 18 22 27 34 39 43 46 49 53 52 45 266 224 238 263 280 291 283 274 261 256 275 264 260 256 258 258 257 270 253 263 265 255 260 260 263 268 268 273 275 281 285 285
2 9 13 18 25 32 39 41 45 47 47 44 42 41 20 313 263 258 245 242 245 250 255 260 264 256 258 265 271 278 282 284 279 279 279 280 281 286 289 286 286 288 290 290
352 355 359 6 13 20 26 34 39 41 42 47 50 39 17 360 351 346 346 322 289 267 265 261 268 266 260 260 256 259 260 262 266 273 279 280 279 279 280 285 290 291 291 290
342 345 346 351 358 4 11 15 23 31 34 33 38 42 42 34 17 352 333 318 306 297 293 288 282 280 278 273 271 271 272 275 280 281 280 280 282 284 286 285 284 285 287 292
332 338 333 335 341 346 350 357 1 5 9 13 18 23 24 29 33 26 8 345 329 310 297 292 288 284 282 280 279 278 280 281 281 282 284 287 290 292 293 293 293 294 296 296
328 327 324 320 324 329 332 334 336 340 342 341 346 346 350 356 0 359 354 340 329 318 311 302 296 292 291 291 290 288 286 286 285 288 289 291 293 295 295 296 297 297 297 296
324 324 324 309 308 311 314 316 317 317 319 318 322 324 324 318 317 319 317 315 310 305 303 304 303 302 300 296 293 291 290 289 288 289 290 291 293 294 295 296 296 296 296 296
309 313 317 314 301 299 300 303 303 306 306 303 303 312 311 310 306 303 303 300 299 295 292 291 291 290 289 288 287 286 288 289 289 291 291 291 292 293 294 295 295 295 296 297
300 299 304 304 303 297 290 290 293 292 294 294 291 293 299 300 297 293 292 291 289 288 284 284 286 286 286 286 286 286 286 287 288 289 290 292 293 294 294 292 290 290 292 294
294 294 295 294 296 295 288 285 286 287 289 292 287 284 286 291 296 295 287 285 284 283 282 283 284 284 284 285 286 286 287 289 291 291 291 292 292 291 290 289 291 293 295 296
286 285 290 291 287 286 286 283 281 284 286 287 289 284 281 279 285 288 291 288 283 279 279 281 283 283 283 283 283 284 285 286 287 288 289 290 289 290 291 293 294 296 297 298
278 280 283 282 282 282 281 281 276 278 282 282 283 287 284 279 277 281 286 288 286 286 283 281 281 281 281 282 283 284 285 286 286 286 288 289 291 291 292 295 295 297 299 301
281 278 277 279 278 280 275 274 274 276 275 279 281 288 286 272 274 276 282 285 287 287 286 285 282 281 280 279 282 283 284 285 286 286 287 289 290 292 296 296 298 299 299 299
276 276 275 276 277 275 275 275 272 270 271 284 283 287 280 274 275 275 278 284 287 291 286 285 285 283 282 281 281 283 283 283 285 287 288 290 291 293 295 298 299 299 299 300
271 276 277 279 277 274 272 272 270 269 273 273 293 281 279 269 270 273 277 284 283 286 288 283 285 286 286 284 280 283 284 284 286 289 291 291 293 296 299 300 299 298 298 299
268 272 275 277 277 277 274 271 268 270 273 278 283 279 281 267 267 275 278 282 287 288 286 284 286 285 283 281 283 285 286 287 289 292 293 294 296 297 298 298 298 298 298 297
267 268 270 274 275 273 271 276 275 271 269 276 274 282 272 270 267 270 271 281 287 289 284 281 284 284 282 285 284 286 287 289 291 292 292 294 296 297 297 297 297 296 296 297
267 266 266 269 270 267 286 277 274 272 274 274 275 274 272 270 267 268 274 283 285 285 277 279 286 284 281 284 284 283 286 290 292 293 293 294 296 295 296 296 295 295 296 297
265 265 266 268 269 274 276 281 277 277 271 270 272 276 275 268 265 269 277 282 277 272 279 284 284 284 283 283 282 283 287 289 291 291 292 293 293 294 294 294 294 295 297 300
263 264 264 267 265 269 293 275 274 272 273 279 280 279 273 268 267 276 274 270 271 278 279 283 284 284 284 282 283 286 287 288 289 289 291 291 293 293 294 294 295 296 299 302
265 264 264 264 264 273 281 273 268 265 282 281 279 274 272 274 271 269 270 270 269 274 280 283 285 285 283 285 286 287 287 288 288 290 290 292 292 293 293 294 295 298 300 302
262 261 262 260 262 270 283 271 270 284 275 273 272 273 275 273 268 268 269 272 271 274 278 280 282 284 285 287 287 286 287 288 290 289 290 290 291 291 293 294 297 300 302 305
256 260 262 261 266 270 269 266 266 265 265 270 269 269 268 271 270 267 267 270 275 277 277 278 281 285 287 286 286 287 287 288 288 288 288 289 290 292 294 296 299 302 305 308
260 261 261 263 264 267 269 267 265 264 263 266 267 268 270 269 266 264 264 268 275 276 276 277 282 284 285 286 285 286 286 286 287 286 287 288 290 292 295 298 301 305 309 311
262 264 264 263 263 263 265 266 266 266 266 264 262 263 265 264 263 263 264 265 270 273 275 279 281 282 283 284 285 285 285 286 286 285 286 288 291 294 298 301 306 310 312 313
259 261 263 267 268 266 263 260 262 262 260 258 255 259 260 263 261 260 263 263 266 271 273 276 280 280 281 283 284 283 285 284 284 285 287 290 294 298 303 307 310 312 315 314
Height
5781 5777 5773 5770 5765 5760 5756 5753 5750 5748 5748 5748 5749 5749 5750 5750 5750 5750 5751 5752 5753 5753 5755 5756 5758 5758 5759 5759 5759 5759 5760 5760 5760 5760 5760 5759 5758 5758 5757 5757 5755 5754 5753 5752
5784 5780 5777 5774 5770 5767 5764 5760 5757 5754 5752 5751 5750 5751 5751 5750 5750 5750 5750 5750 5749 5749 5749 5750 5751 5750 5750 5752 5752 5752 5752 5751 5753 5752 5751 5752 5750 5750 5750 5748 5748 5747 5746 5744
5784 5782 5779 5776 5774 5771 5768 5766 5762 5760 5757 5755 5753 5752 5750 5749 5749 5748 5747 5747 5748 5749 5747 5747 5747 5746 5746 5746 5746 5746 5746 5746 5747 5746 5746 5745 5745 5744 5744 5742 5740 5739 5738 5737
5784 5782 5780 5777 5775 5773 5771 5768 5766 5764 5762 5759 5756 5755 5752 5751 5750 5750 5750 5750 5749 5748 5748 5746 5745 5745 5745 5745 5745 5744 5744 5744 5742 5741 5741 5741 5740 5739 5737 5735 5735 5733 5732 5729
5785 5781 5779 5778 5775 5773 5772 5769 5767 5765 5763 5761 5759 5757 5755 5752 5751 5750 5750 5749 5748 5747 5746 5745 5744 5743 5742 5742 5741 5740 5738 5738 5737 5737 5737 5736 5734 5733 5730 5729 5728 5726 5723 5721
5783 5781 5779 5777 5774 5773 5770 5769 5766 5765 5763 5761 5759 5758 5756 5754 5752 5750 5748 5747 5746 5745 5744 5743 5742 5742 5741 5739 5738 5737 5736 5735 5735 5733 5731 5730 5728 5726 5725 5723 5720 5717 5714 5711
5781 5779 5777 5775 5774 5771 5769 5767 5765 5764 5761 5759 5758 5756 5756 5753 5751 5750 5748 5746 5744 5743 5742 5740 5740 5739 5738 5737 5736 5735 5733 5732 5731 5728 5726 5724 5722 5720 5717 5713 5711 5708 5705 5701
5779 5778 5775 5773 5772 5769 5766 5765 5763 5759 5758 5756 5754 5754 5753 5750 5749 5747 5745 5744 5743 5741 5739 5738 5737 5736 5734 5733 5732 5731 5729 5727 5725 5722 5720 5717 5715 5711 5708 5704 5701 5697 5693 5689
5773 5774 5771 5769 5767 5766 5763 5761 5759 5755 5754 5751 5749 5749 5747 5746 5744 5743 5741 5739 5738 5737 5735 5734 5732 5730 5728 5726 5725 5723 5721 5719 5716 5714 5711 5707 5704 5701 5697 5694 5690 5687 5683 5678
5768 5766 5766 5763 5762 5761 5757 5757 5754 5750 5747 5745 5743 5743 5743 5741 5738 5737 5736 5734 5732 5730 5729 5727 5726 5724 5722 5720 5717 5715 5712 5710 5708 5704 5701 5697 5694 5691 5687 5683 5679 5675 5671 5666
5760 5758 5761 5757 5756 5754 5752 5750 5748 5744 5742 5738 5735 5736 5738 5736 5732 5731 5728 5727 5725 5723 5721 5719 5717 5715 5713 5711 5708 5706 5703 5700 5697 5694 5690 5687 5684 5680 5676 5672 5668 5663 5658 5653
5752 5747 5749 5748 5748 5747 5745 5743 5740 5736 5734 5730 5727 5726 5728 5727 5725 5723 5721 5719 5716 5715 5713 5711 5708 5705 5703 5700 5698 5696 5693 5690 5687 5684 5681 5677 5673 5669 5665 5660 5655 5651 5644 5638
5743 5737 5737 5737 5740 5740 5734 5734 5731 5727 5724 5721 5717 5719 5720 5718 5714 5712 5710 5708 5707 5705 5704 5701 5698 5695 5693 5690 5688 5686 5682 5679 5676 5673 5669 5665 5661 5657 5653 5648 5642 5636 5630 5623
5729 5726 5728 5727 5729 5728 5722 5723 5720 5716 5711 5715 5705 5710 5712 5711 5705 5701 5699 5696 5695 5695 5694 5690 5687 5685 5682 5680 5677 5675 5671 5668 5665 5661 5658 5654 5649 5645 5639 5634 5628 5622 5615 5608
5714 5714 5716 5718 5716 5716 5711 5710 5706 5700 5704 5696 5705 5695 5705 5702 5693 5691 5690 5687 5685 5683 5682 5679 5675 5673 5672 5669 5665 5662 5659 5656 5652 5650 5646 5641 5636 5631 5625 5619 5612 5606 5599 5591
5699 5699 5702 5704 5704 5704 5694 5695 5691 5694 5690 5688 5691 5685 5695 5689 5684 5680 5679 5677 5675 5674 5670 5666 5664 5662 5660 5656 5654 5650 5647 5644 5640 5637 5632 5627 5622 5616 5610 5603 5598 5590 5582 5574
5683 5683 5684 5687 5690 5687 5670 5683 5684 5682 5675 5679 5675 5681 5676 5676 5673 5669 5665 5666 5663 5664 5658 5653 5651 5649 5647 5645 5642 5639 5635 5631 5627 5623 5618 5613 5607 5602 5595 5589 5583 5575 5566 5557
5665 5665 5664 5668 5669 5658 5668 5671 5670 5665 5665 5665 5665 5665 5663 5663 5659 5655 5654 5656 5653 5652 5646 5642 5639 5637 5634 5631 5628 5624 5621 5618 5614 5609 5603 5598 5593 5586 5580 5574 5567 5558 5550 5541
5648 5649 5644 5643 5642 5646 5639 5659 5657 5655 5648 5648 5652 5656 5653 5646 5642 5644 5645 5643 5639 5637 5634 5632 5628 5625 5622 5618 5613 5609 5607 5604 5600 5594 5587 5582 5577 5571 5565 5558 5550 5543 5534 5524
5631 5631 5626 5622 5611 5618 5628 5649 5644 5636 5621 5641 5640 5641 5634 5627 5627 5640 5629 5625 5626 5625 5621 5618 5615 5612 5609 5605 5601 5598 5593 5588 5584 5577 5574 5567 5562 5556 5550 5542 5534 5526 5518 5508
5610 5606 5602 5602 5586 5600 5617 5629 5623 5613 5624 5628 5623 5620 5615 5616 5617 5618 5612 5612 5611 5610 5607 5604 5602 5598 5594 5591 5588 5584 5578 5574 5568 5565 5558 5552 5547 5541 5534 5527 5519 5511 5501 5491
5582 5581 5580 5580 5573 5568 5602 5610 5606 5618 5608 5607 5600 5599 5597 5599 5599 5599 5599 5597 5594 5593 5591 5589 5586 5583 5579 5577 5573 5568 5564 5557 5554 5547 5542 5537 5532 5525 5519 5511 5503 5494 5484 5473
5542 5556 5561 5556 5553 5571 5576 5589 5591 5592 5591 5589 5586 5583 5579 5580 5582 5582 5581 5580 5580 5578 5576 5573 5570 5567 5563 5560 5557 5552 5546 5542 5536 5531 5526 5522 5516 5510 5503 5495 5487 5477 5466 5454
5525 5541 5523 5532 5536 5551 5563 5569 5572 5573 5572 5570 5567 5564 5561 5562 5563 5563 5562 5563 5563 5561 5558 5556 5553 5550 5546 5542 5538 5535 5530 5524 5519 5515 5511 5507 5501 5494 5487 5479 5471 5460 5447 5434
5516 5520 5506 5498 5513 5531 5546 5551 5553 5550 5550 5548 5545 5543 5542 5541 5542 5542 5543 5544 5544 5543 5540 5538 5535 5532 5529 5525 5521 5517 5512 5508 5503 5499 5495 5490 5485 5479 5472 5464 5453 5442 5428 5413
5487 5489 5479 5475 5508 5503 5520 5531 5523 5523 5524 5524 5522 5523 5524 5522 5523 5522 5523 5523 5523 5524 5523 5520 5518 5514 5510 5508 5505 5500 5496 5492 5488 5483 5479 5475 5470 5464 5456 5446 5435 5423 5408 5390